Torna al catalogo

BS-3A

YURI 3A

AttivoComunicazioniGEO
NORAD 20771·PAYLOAD·🇯🇵 Japan

Lanciato Aug 28, 1990 da Tanegashima Space Center

Loading…

TLE

AggiornatoSource: Space-Track

Epoca: Sep 14, 2026, 11:28 UTC

1 20771U 90077A   26257.47837970 -.00000053  00000-0  00000-0 0  9996
2 20771  15.6199 356.6960 0013500 269.3657 108.9613  0.98812792136466

Traccia BS-3A in tempo reale con AllMySat

Download on the App Store